Location: Chippewa Lake
(41.0698°N, 81.9010°W)
Time: 02:09:09
(UTC+00:00)

Cosmos 1242 Rocket - Pass Details

Date: 09 May 2021
Orbit: 446 x 484 km, 81.2° (Epoch: 24 June)

Event Time Altitude Azimuth Distance (km) Brightness Sun altitude
Exits shadow 02:39:40 15° 220° (SW) 1,360 4.7 -20.2°
Maximum altitude 02:42:15 37° 284° (WNW) 758 3.9 -20.5°
Drops below altitude 10° 02:45:36 10° 353° (N) 1,635 6.0 -21.0°
Sets 02:47:48 0° 2° (N) 2,509 6.9 -21.2°
